830  
ASUS44 KSHV 181910  
RWRSHV  
 
THE FOUR STATE AREA WEATHER ROUNDUP  
NATIONAL WEATHER SERVICE SHREVEPORT LA  
200 PM CDT THU JUL 18 2024  
 
NOTE: "FAIR" INDICATES FEW OR NO CLOUDS BELOW 12000 FEET  
WITH NO SIGNIFICANT WEATHER AND/OR S TO VISIBILITY
.  
 
!LAZ001-LAZ014-TXZ097-182000  
SHREVEPORT...MONROE...TEXARKANA RADIOS  
 
CITY SKY/WX TMP DP RH WIND PRES REMARKS
 
SHREVEPORT CLOUDY 86 72 62 NE9 30.04F  
MONROE CLOUDY 86 72 62 VRB3 30.04F  
NATCHITOCHES CLOUDY 85 72 65 CALM 30.03F  
TEXARKANA MOSUNNY 86 72 62 E8 30.05F  
ATLANTA MOSUNNY 84 75 75 VRB5 30.01F  

 
 
!LAZ001-LAZ014-TXZ097-182000  
OTHER LOCATIONS...  
 
CITY SKY/WX TMP DP RH WIND PRES REMARKS
 
DOWNTOWN SHV CLOUDY 83 71 67 NE7 30.04F  
BOSSIER CITY CLOUDY 81 74 79 NE6 30.03F  
RUSTON N/A 83 73 71 CALM 30.03F  
LITTLE ROCK CLOUDY 81 67 62 E6 30.09F  
EL DORADO LGT RAIN 79 73 82 NE5 30.05F  
JACKSON PTSUNNY 93 71 48 VRB3 30.00F HX 100  
NEW ORLEANS TSTM 78 74 87 S5 30.05R  
HOUSTON CLOUDY 80 71 74 CALM 30.03F  
LUFKIN LGT RAIN 75 75 100 N5 30.04F  
TYLER CLOUDY 79 71 76 N6 30.05F  
DAL FT WORTH LGT RAIN 79 71 76 E3 30.04F  

 
 
!TXZ136-TXZ165-182000  
TYLER...LUFKIN RADIOS  
 
CITY SKY/WX TMP DP RH WIND PRES REMARKS
 
TYLER CLOUDY 79 71 76 N6 30.05F  
GILMER MOSUNNY 80 69 69 CALM 30.05F  
LONGVIEW CLOUDY 82 72 71 E9 30.03F  
LUFKIN LGT RAIN 75 75 100 N5 30.04F  

 
 
!TXZ136-TXZ165-182000  
OTHER LOCATIONS...  
 
CITY SKY/WX TMP DP RH WIND PRES REMARKS
 
NACOGDOCHES CLOUDY 75 73 93 CALM 30.06F  
BEAUMONT PTSUNNY 84 75 74 NW7 30.02S  
HOUSTON CLOUDY 80 71 74 CALM 30.03F  
COLLEGE STN MOSUNNY 87 75 67 W12G18 30.02F  
AUSTIN MOSUNNY 90 72 55 W8 30.02F  
DAL FT WORTH LGT RAIN 79 71 76 E3 30.04F  
TEXARKANA MOSUNNY 86 72 62 E8 30.05F  
SHREVEPORT CLOUDY 86 72 62 NE9 30.04F  
FORT POLK CLOUDY 84 73 70 NW8 30.02F  
LAKE CHARLES PTSUNNY 84 73 69 VRB5 30.01F  

 
 
 
CLICK HERE TO GO TO PREVIOUS BULLETINS.

The Nexlab LA Page
The Nexlab TX Page
The Nexlab AR Page
The Nexlab OK Page Main Text Page